Temperature
15 16 16 16 16 16 16 16 16 16 16 16 16 16 16 16 16 16 16 16 16 16 15 15 15 15 15 15 14 14 14 14 14 14 14 14 14 14
15 15 15 15 15 16 16 16 16 16 16 16 16 16 16 16 16 16 16 16 16 16 15 15 15 15 15 15 15 14 14 14 14 14 14 14 14 14
15 15 15 15 15 15 15 15 15 15 15 15 16 16 16 16 16 16 16 16 16 16 15 15 15 15 15 15 15 14 14 14 14 14 14 14 14 14
15 15 15 15 15 15 15 15 15 15 15 15 15 15 15 15 15 15 15 15 15 15 15 15 15 15 15 15 14 14 14 14 14 14 14 14 14 14
15 15 15 15 15 15 15 15 15 14 14 14 15 15 15 15 15 15 15 15 15 15 15 15 14 14 14 14 14 14 14 14 14 14 14 14 14 14
15 15 15 14 14 14 14 14 14 14 14 14 14 14 14 14 14 14 14 14 14 14 14 14 14 14 14 14 14 14 14 14 14 14 14 14 14 14
14 14 14 14 14 14 14 14 14 14 14 13 13 13 13 13 13 13 13 13 13 13 13 13 13 13 13 13 13 13 13 13 13 13 13 13 13 13
14 14 14 14 14 13 13 13 13 13 13 13 12 12 12 12 12 12 12 12 12 12 12 12 12 12 12 12 12 12 12 12 12 12 12 12 12 12
13 13 13 13 13 13 12 12 12 12 12 12 11 11 11 11 11 11 11 11 11 11 10 11 11 11 11 11 11 11 11 11 11 11 11 11 11 11
12 12 12 12 12 12 11 11 11 11 11 10 10 10 10 9 9 9 9 9 9 9 9 9 9 10 10 10 9 9 9 9 10 10 10 10 10 10
11 11 11 11 11 11 11 10 10 10 9 9 9 8 8 8 8 8 8 8 8 8 8 8 8 8 8 8 8 8 8 8 8 9 9 9 9 9
11 10 10 10 10 9 9 9 9 8 8 8 8 7 7 7 7 7 7 7 7 7 6 6 6 6 6 7 7 7 7 7 7 8 8 8 8 8
10 9 9 8 8 8 8 8 7 7 7 7 7 7 7 7 6 6 6 6 5 5 5 5 5 5 5 5 6 6 6 6 6 6 7 7 7 7
9 8 8 7 7 7 7 7 6 6 6 6 6 6 6 6 5 5 5 5 4 4 4 4 4 4 3 3 4 4 5 5 5 5 5 5 6 6
7 7 7 7 6 6 6 6 6 5 5 5 5 4 4 4 4 4 4 4 4 3 3 3 3 3 3 2 3 3 3 4 4 4 4 4 5 5
7 6 6 6 6 5 5 5 5 4 4 4 3 3 3 3 3 3 3 3 3 3 3 2 2 2 2 2 2 2 2 2 3 3 3 4 4 4
6 6 5 5 5 4 4 4 4 3 3 3 3 3 3 3 2 2 2 2 2 2 2 2 2 2 2 2 2 2 2 2 2 2 3 3 3 4
5 5 5 4 4 3 3 3 3 2 2 2 2 2 2 2 2 2 1 1 1 1 1 1 1 1 1 2 2 1 1 1 2 2 2 2 3 3
5 4 4 3 3 3 2 2 2 2 2 2 1 1 1 1 1 1 1 1 1 1 1 1 1 0 -0 0 1 1 1 1 1 1 2 2 2 2
4 3 3 2 2 2 2 1 1 1 1 1 1 1 1 1 1 0 0 0 0 0 0 1 0 0 -0 -0 0 1 1 1 1 1 1 1 2 2
3 2 2 2 2 1 1 1 1 1 1 1 1 0 0 0 0 -0 -0 -0 -0 -0 -0 0 0 0 0 0 0 1 1 1 1 1 1 1 1 2
2 2 2 1 1 1 1 1 1 0 0 0 0 0 -0 -0 -0 -0 -0 -0 -0 -0 -0 0 0 0 0 0 -0 0 1 1 1 1 1 1 1 1
2 2 1 1 1 1 0 0 0 0 0 0 -0 -0 -0 -0 -0 -1 -1 -1 -1 -1 -0 -0 -0 -0 -0 -0 -0 -0 0 0 0 1 1 1 1 1
Wind_Speed
3 3 2 2 2 2 2 3 3 2 2 3 2 2 3 5 8 8 9 12 13 14 15 15 15 15 15 15 15 15 15 15 15 15 15 15 15 14
3 3 2 2 1 2 2 2 3 3 3 2 3 2 3 4 4 6 8 10 11 12 13 14 14 14 15 15 15 16 16 17 17 16 16 16 16 16
3 3 3 2 2 2 2 2 2 3 3 3 2 2 2 3 4 3 4 4 6 9 10 11 11 12 13 14 15 15 16 17 17 17 18 18 17 17
3 3 3 2 2 2 2 2 2 3 3 3 1 1 2 2 3 2 3 3 4 6 7 8 10 11 11 12 12 13 14 15 16 16 17 17 17 18
3 3 2 2 2 1 1 1 1 2 2 2 2 1 1 2 2 2 3 3 4 5 4 5 6 6 7 7 9 9 10 11 12 14 15 16 16 17
3 2 2 2 1 1 1 1 1 1 1 1 1 1 1 2 2 3 3 3 4 5 6 5 5 5 5 6 7 7 7 8 9 10 12 13 14 15
4 4 4 5 4 2 1 1 1 1 1 0 1 1 2 3 3 3 3 3 2 3 4 4 5 5 6 6 6 7 7 7 8 9 10 11 12 13
5 5 6 8 9 10 10 9 7 3 2 1 1 2 2 2 3 3 3 3 3 4 4 4 3 4 6 5 7 8 9 9 9 9 9 10 10 12
6 6 6 6 7 7 11 14 14 15 10 4 4 3 3 4 3 3 3 2 2 4 4 3 3 4 6 6 7 8 9 9 10 10 11 11 11 12
7 7 7 6 7 7 9 11 11 11 10 8 7 6 5 5 3 2 2 3 2 3 5 3 4 5 6 6 6 8 10 11 12 13 13 13 13 13
9 9 8 8 9 10 10 10 10 9 13 16 15 14 15 15 10 5 5 4 3 3 5 4 4 6 5 4 5 9 11 12 14 14 14 14 13 12
9 10 13 12 12 12 10 9 9 7 7 8 10 12 13 14 15 9 5 4 3 3 5 5 4 5 5 4 5 9 11 12 14 14 14 14 13 10
8 8 9 14 15 14 12 10 9 7 7 8 8 8 8 8 10 10 8 4 3 3 5 5 4 4 5 6 7 7 9 10 11 12 13 13 12 9
9 8 9 14 15 14 12 12 12 9 7 7 8 8 7 7 7 9 9 8 4 3 5 5 3 5 6 8 7 8 9 11 10 9 10 11 12 11
10 13 13 14 13 12 15 14 10 8 7 7 7 6 6 6 7 7 8 9 8 7 7 6 5 6 6 7 8 9 10 9 8 8 9 9 9 9
10 12 14 15 12 11 10 9 8 7 7 6 5 5 5 6 7 6 6 7 6 6 8 10 9 7 7 9 9 10 10 8 9 10 11 10 10 11
8 8 8 7 8 8 7 7 7 7 6 5 5 5 6 7 6 6 6 6 6 7 8 8 11 11 9 9 9 9 10 10 10 11 10 11 11 10
9 7 7 7 6 6 6 5 5 6 5 5 5 6 6 6 7 6 6 6 7 8 8 9 9 9 9 7 6 8 10 11 11 11 11 10 11 11
8 7 6 5 5 4 4 4 4 5 4 5 5 6 6 6 6 7 7 7 8 8 9 9 8 8 10 12 8 7 10 12 11 11 10 10 11 11
6 5 4 4 3 3 3 3 4 4 5 5 6 6 6 6 7 7 7 8 8 9 9 9 9 9 9 10 9 12 13 11 10 10 11 11 10 12
4 3 3 2 2 2 2 3 3 4 5 6 6 6 6 6 6 7 7 9 8 8 10 10 10 13 10 7 8 9 10 12 12 9 10 10 10 9
2 2 2 1 1 2 2 3 4 5 6 6 6 6 6 6 7 8 8 8 8 9 10 10 11 10 7 8 10 11 11 12 12 13 11 9 7 7
1 1 1 1 1 2 2 3 4 5 5 6 6 6 6 6 6 7 8 8 8 10 10 10 10 9 9 9 9 10 12 12 10 10 10 12 13 13
Wind_Direction
176 174 175 191 188 192 182 173 167 207 264 279 285 297 289 268 265 255 253 257 255 253 251 250 251 254 256 258 259 260 260 261 263 264 265 265 265 266
178 171 180 196 186 184 187 189 185 187 228 257 262 288 308 309 293 261 259 264 262 259 257 255 254 256 258 260 262 262 262 263 263 263 264 264 264 264
179 178 194 184 184 188 180 182 190 187 218 262 261 291 309 327 338 324 295 281 278 268 264 260 259 260 263 265 267 267 267 266 265 263 262 262 261 261
184 179 199 188 187 187 184 195 202 203 210 245 280 300 306 332 330 336 336 320 301 293 278 270 269 270 270 272 274 273 271 270 268 266 264 262 261 259
166 171 185 163 180 175 182 198 214 208 205 220 267 306 317 346 343 345 352 349 341 335 328 316 305 300 296 297 293 286 281 278 274 271 268 266 265 263
133 131 125 141 176 173 173 200 180 166 175 209 278 329 332 345 3 355 349 354 357 1 2 4 3 358 346 335 323 314 306 297 289 284 280 277 274 271
96 87 76 76 74 85 90 86 119 124 126 111 17 20 10 6 359 348 339 336 349 7 352 359 4 3 356 354 351 348 341 329 318 307 298 291 285 281
95 82 72 63 66 68 69 65 62 62 61 63 47 36 12 358 353 353 347 350 340 359 344 333 349 343 347 354 2 4 2 355 344 334 324 313 301 290
85 81 75 64 65 76 73 68 59 54 55 71 60 37 15 358 353 354 352 341 319 333 334 317 341 335 337 344 358 3 2 358 351 340 331 323 316 306
73 75 79 68 68 84 84 74 65 54 54 61 65 49 38 19 10 357 335 329 313 358 0 324 331 324 325 327 353 1 357 351 340 331 324 317 309 302
66 64 72 73 68 81 86 82 71 58 59 62 62 55 48 41 35 32 23 16 353 360 10 345 328 320 311 304 325 348 346 338 331 325 319 314 310 304
73 64 63 71 67 71 80 81 75 58 53 52 47 42 40 39 39 38 25 16 357 342 2 346 331 333 313 304 320 329 327 324 323 321 320 318 316 309
83 72 66 70 70 69 72 74 76 73 64 60 52 41 35 31 27 25 23 21 7 344 347 342 328 329 309 305 309 313 320 321 320 316 316 317 317 309
90 84 78 75 73 69 70 67 64 63 60 54 46 35 26 19 10 6 7 8 358 326 326 340 331 324 317 309 307 312 315 315 313 312 317 319 315 308
91 91 83 76 72 68 64 61 57 57 54 49 39 24 10 359 359 358 0 358 351 347 350 341 329 318 307 301 303 305 310 311 310 314 317 315 311 309
89 81 74 68 67 63 57 53 52 52 53 45 28 11 2 2 4 359 353 351 347 340 336 336 330 318 308 301 297 300 305 305 310 312 312 308 303 301
96 80 72 67 63 58 54 49 45 42 39 28 19 11 4 0 356 353 349 346 345 338 334 334 333 323 301 292 296 302 310 312 311 312 310 307 302 300
87 81 75 71 66 59 53 45 37 30 22 15 12 6 358 352 347 346 346 343 337 331 328 328 332 332 330 319 273 298 309 312 312 310 307 305 304 304
86 85 80 73 66 58 49 41 27 12 7 9 5 358 351 347 343 342 342 338 334 329 326 327 332 334 330 329 318 298 307 311 311 311 309 305 301 302
84 88 83 74 65 55 43 27 14 7 6 2 358 354 350 344 340 339 337 334 329 326 326 329 332 331 321 313 308 310 308 305 310 311 311 308 300 292
82 82 80 71 57 43 27 15 8 2 357 352 351 349 345 340 335 333 330 327 326 326 326 324 319 315 308 301 305 314 318 315 307 305 311 311 311 312
88 85 74 63 46 29 16 7 2 357 353 348 342 340 338 334 330 329 328 327 325 322 318 316 319 322 322 320 320 319 320 324 325 322 311 300 309 316
105 98 87 55 31 16 7 359 354 347 344 340 336 334 333 329 326 323 323 322 322 322 323 323 325 326 324 320 320 320 322 327 330 332 333 331 318 303
Height
1558 1560 1561 1562 1562 1563 1564 1564 1565 1564 1565 1565 1565 1565 1565 1565 1565 1565 1565 1566 1566 1566 1566 1566 1566 1566 1566 1565 1565 1565 1565 1564 1564 1564 1563 1563 1563 1563
1556 1558 1559 1559 1560 1561 1561 1562 1562 1562 1562 1562 1562 1562 1562 1562 1562 1562 1562 1562 1562 1562 1563 1563 1562 1562 1562 1562 1561 1561 1560 1560 1559 1559 1559 1558 1558 1558
1554 1555 1556 1557 1557 1558 1558 1559 1559 1559 1559 1559 1559 1559 1559 1558 1558 1558 1558 1558 1558 1558 1558 1558 1558 1558 1557 1557 1556 1556 1555 1555 1554 1554 1554 1553 1553 1552
1552 1552 1553 1554 1554 1555 1555 1556 1556 1556 1556 1555 1555 1555 1555 1555 1554 1554 1554 1554 1554 1554 1554 1553 1553 1553 1552 1552 1551 1551 1550 1549 1549 1548 1548 1547 1547 1546
1549 1550 1550 1551 1551 1552 1552 1552 1552 1552 1552 1552 1551 1551 1551 1551 1550 1550 1550 1549 1549 1549 1548 1548 1547 1547 1546 1546 1545 1544 1544 1543 1543 1542 1541 1541 1540 1540
1546 1547 1547 1548 1548 1549 1549 1549 1549 1549 1549 1548 1548 1547 1547 1546 1546 1545 1545 1545 1544 1544 1543 1542 1542 1541 1540 1539 1538 1538 1537 1536 1535 1535 1534 1534 1533 1533
1543 1544 1544 1545 1545 1545 1545 1545 1545 1545 1545 1544 1544 1543 1543 1542 1542 1541 1540 1539 1539 1538 1538 1537 1536 1535 1534 1533 1532 1531 1530 1529 1528 1527 1526 1526 1525 1525
1540 1541 1541 1542 1542 1542 1542 1542 1542 1542 1541 1541 1540 1540 1539 1539 1538 1537 1536 1535 1534 1534 1532 1531 1531 1529 1528 1527 1526 1524 1523 1522 1521 1520 1519 1518 1517 1517
1537 1538 1539 1539 1540 1540 1540 1539 1539 1539 1539 1539 1538 1537 1536 1535 1534 1533 1532 1531 1530 1529 1527 1526 1525 1524 1523 1521 1520 1518 1517 1515 1514 1513 1511 1510 1509 1508
1535 1536 1537 1538 1538 1538 1538 1537 1537 1537 1536 1535 1535 1534 1534 1533 1532 1531 1529 1528 1527 1525 1523 1522 1520 1519 1518 1516 1514 1512 1511 1509 1507 1505 1504 1502 1501 1500
1534 1535 1536 1536 1536 1536 1536 1536 1535 1535 1535 1534 1534 1533 1532 1531 1529 1528 1526 1525 1523 1522 1520 1518 1515 1513 1512 1511 1509 1507 1505 1503 1500 1498 1496 1494 1493 1491
1533 1534 1535 1535 1535 1535 1535 1535 1535 1535 1535 1534 1533 1532 1530 1529 1527 1526 1524 1522 1520 1518 1516 1514 1512 1509 1506 1505 1504 1501 1499 1496 1494 1492 1489 1487 1485 1483
1533 1534 1535 1536 1535 1535 1535 1535 1535 1535 1534 1533 1532 1531 1529 1527 1525 1524 1522 1520 1518 1516 1514 1511 1508 1506 1503 1499 1497 1495 1493 1489 1487 1484 1482 1480 1478 1476
1534 1536 1536 1537 1537 1536 1536 1535 1535 1535 1534 1532 1531 1529 1527 1525 1523 1522 1520 1518 1516 1513 1511 1508 1505 1502 1499 1495 1491 1488 1486 1484 1481 1478 1475 1472 1471 1469
1536 1537 1538 1538 1538 1537 1537 1536 1535 1534 1533 1531 1529 1528 1526 1524 1522 1520 1517 1515 1513 1511 1508 1505 1502 1499 1496 1492 1487 1483 1480 1477 1475 1472 1469 1466 1464 1461
1538 1539 1540 1540 1539 1538 1537 1536 1535 1534 1532 1531 1529 1527 1525 1522 1519 1516 1514 1511 1509 1506 1504 1501 1498 1495 1491 1487 1484 1479 1476 1473 1469 1466 1463 1460 1458 1455
1541 1541 1541 1541 1540 1539 1538 1536 1535 1534 1532 1530 1528 1525 1523 1520 1517 1514 1511 1508 1506 1502 1499 1497 1494 1491 1487 1484 1479 1476 1472 1468 1465 1461 1457 1453 1451 1449
1542 1542 1541 1541 1540 1539 1538 1537 1535 1533 1531 1529 1527 1524 1521 1518 1515 1512 1510 1507 1504 1501 1497 1494 1490 1486 1483 1479 1477 1472 1468 1464 1460 1457 1453 1448 1444 1443
1543 1543 1542 1542 1541 1540 1539 1537 1535 1533 1531 1528 1526 1523 1520 1517 1514 1511 1508 1505 1502 1499 1496 1492 1488 1484 1480 1476 1472 1470 1465 1460 1456 1452 1448 1444 1440 1437
1544 1544 1543 1543 1542 1541 1539 1537 1536 1533 1531 1528 1525 1522 1519 1515 1512 1509 1506 1503 1500 1497 1494 1491 1487 1483 1479 1475 1470 1465 1463 1458 1453 1448 1444 1440 1436 1432
1545 1545 1544 1544 1543 1541 1539 1537 1535 1533 1530 1527 1524 1521 1517 1514 1511 1508 1505 1502 1499 1495 1491 1488 1485 1482 1477 1472 1468 1463 1459 1455 1451 1446 1441 1436 1431 1427
1546 1546 1545 1544 1543 1541 1539 1537 1534 1532 1529 1526 1523 1519 1516 1513 1510 1507 1503 1500 1497 1493 1490 1486 1482 1478 1474 1470 1465 1460 1456 1452 1448 1444 1439 1435 1430 1425
1547 1546 1545 1544 1542 1540 1538 1536 1533 1530 1527 1524 1521 1518 1515 1511 1508 1505 1502 1498 1495 1491 1487 1483 1479 1476 1472 1468 1464 1459 1454 1449 1445 1440 1437 1433 1429 1425